Location: Champignolles
(47.0543°N, 4.5663°E)
Time: 07:57:33
(UTC+00:00)

Cosmos 923 Rocket - Pass Details

Date: 17 April 2021
Orbit: 759 x 785 km, 74.0° (Epoch: 13 May)

Event Time Altitude Azimuth Distance (km) Brightness Sun altitude
Rises 01:46:15 0° 341° (NNW) 3,230 7.7 -26.1°
Reaches altitude 10° 01:48:42 10° 346° (NNW) 2,302 7.0 -25.8°
Maximum altitude 01:53:47 52° 63° (ENE) 947 4.7 -25.3°
Enters shadow 01:58:14 14° 138° (SE) 2,062 6.1 -24.9°
